Location: Brachbach
(49.1847°N, 9.7240°E)
Time: 21:52:05
(UTC+00:00)

Cosmos 2219 Rocket - Pass Details

Date: 20 August 2024
Orbit: 826 x 846 km, 71.0° (Epoch: 09 September)

Event Time Altitude Azimuth Distance (km) Brightness Sun altitude
Exits shadow 00:49:45 15° 282° (WNW) 2,112 4.1 -25.7°
Maximum altitude 00:52:38 22° 320° (NW) 1,777 4.1 -25.5°
Drops below altitude 10° 00:57:00 10° 10° (N) 2,481 5.6 -25.2°
Sets 01:00:02 0° 25° (NNE) 3,419 6.8 -25.0°
